Year,Month,Day,Hour,Minute,Value (Times are PST for barometer in hPa)
2021,06,27,00,00,955.94
2021,06,27,00,01,955.94
2021,06,27,00,02,955.94
2021,06,27,00,03,955.94
2021,06,27,00,04,955.94
2021,06,27,00,05,955.94
2021,06,27,00,06,955.94
2021,06,27,00,07,955.94
2021,06,27,00,08,955.94
2021,06,27,00,09,955.94
2021,06,27,00,10,955.94
2021,06,27,00,11,955.94
2021,06,27,00,12,955.94
2021,06,27,00,13,955.94
2021,06,27,00,14,955.94
2021,06,27,00,15,955.94
2021,06,27,00,16,955.94
2021,06,27,00,17,955.94
2021,06,27,00,18,955.94
2021,06,27,00,19,955.94
2021,06,27,00,20,955.94
2021,06,27,00,21,955.94
2021,06,27,00,22,955.94
2021,06,27,00,23,955.94
2021,06,27,00,24,955.94
2021,06,27,00,25,955.94
2021,06,27,00,26,919.57
2021,06,27,00,27,919.57
2021,06,27,00,28,919.57
2021,06,27,00,29,919.57
2021,06,27,00,30,919.57
2021,06,27,00,31,919.57
2021,06,27,00,32,919.57
2021,06,27,00,33,919.57
2021,06,27,00,34,919.57
2021,06,27,00,35,919.57
2021,06,27,00,36,919.57
2021,06,27,00,37,919.57
2021,06,27,00,38,919.57
2021,06,27,00,39,919.57
2021,06,27,00,40,919.57
2021,06,27,00,41,919.57
2021,06,27,00,42,919.57
2021,06,27,00,43,919.57
2021,06,27,00,44,920.28
2021,06,27,00,45,933.83
2021,06,27,00,46,933.83
2021,06,27,00,47,933.83
2021,06,27,00,48,933.83
2021,06,27,00,49,933.83
2021,06,27,00,50,933.83
2021,06,27,00,51,933.83
2021,06,27,00,52,933.83
2021,06,27,00,53,933.83
2021,06,27,00,54,933.83
2021,06,27,00,55,957.87
2021,06,27,00,56,957.87
2021,06,27,00,57,957.87
2021,06,27,00,58,956.32
2021,06,27,00,59,956.32
2021,06,27,01,00,956.32
2021,06,27,01,01,953.91
2021,06,27,01,02,953.78
2021,06,27,01,03,951.10
2021,06,27,01,04,951.10
2021,06,27,01,05,951.10
2021,06,27,01,06,951.10
2021,06,27,01,07,951.10
2021,06,27,01,08,950.39
2021,06,27,01,09,950.39
2021,06,27,01,10,950.39
2021,06,27,01,11,950.39
2021,06,27,01,12,942.36
2021,06,27,01,13,942.36
2021,06,27,01,14,942.36
2021,06,27,01,15,942.60
2021,06,27,01,16,947.41
2021,06,27,01,17,947.41
2021,06,27,01,18,947.41
2021,06,27,01,19,947.54
2021,06,27,01,20,950.25
2021,06,27,01,21,950.25
2021,06,27,01,22,950.25
2021,06,27,01,23,950.25
2021,06,27,01,24,950.25
2021,06,27,01,25,950.25
2021,06,27,01,26,950.25
2021,06,27,01,27,950.25
2021,06,27,01,28,950.25
2021,06,27,01,29,950.25
2021,06,27,01,30,962.04
2021,06,27,01,31,962.04
2021,06,27,01,32,962.04
2021,06,27,01,33,962.04
2021,06,27,01,34,962.04
2021,06,27,01,35,962.04
2021,06,27,01,36,962.04
2021,06,27,01,37,962.04
2021,06,27,01,38,962.04
2021,06,27,01,39,962.04
2021,06,27,01,40,962.04
2021,06,27,01,41,962.04
2021,06,27,01,42,961.77
2021,06,27,01,43,956.72
2021,06,27,01,44,956.72
2021,06,27,01,45,956.72
2021,06,27,01,46,956.72
2021,06,27,01,47,956.72
2021,06,27,01,48,956.72
2021,06,27,01,49,956.72
2021,06,27,01,50,956.72
2021,06,27,01,51,956.72
2021,06,27,01,52,956.72
2021,06,27,01,53,956.72
2021,06,27,01,54,956.72
2021,06,27,01,55,956.72
2021,06,27,01,56,956.72
2021,06,27,01,57,956.72
2021,06,27,01,58,956.72
2021,06,27,01,59,956.72
2021,06,27,02,00,956.72
2021,06,27,02,01,956.72
2021,06,27,02,02,956.72
2021,06,27,02,03,956.72
2021,06,27,02,04,956.72
2021,06,27,02,05,956.72
2021,06,27,02,06,937.32
2021,06,27,02,07,937.32
2021,06,27,02,08,937.32
2021,06,27,02,09,937.32
2021,06,27,02,10,937.32
2021,06,27,02,11,937.32
2021,06,27,02,12,937.32
2021,06,27,02,13,937.32
2021,06,27,02,14,937.32
2021,06,27,02,15,937.32
2021,06,27,02,16,937.32
2021,06,27,02,17,937.32
2021,06,27,02,18,937.32
2021,06,27,02,19,937.44
2021,06,27,02,20,939.86
2021,06,27,02,21,939.86
2021,06,27,02,22,934.20
2021,06,27,02,23,934.20
2021,06,27,02,24,934.20
2021,06,27,02,25,934.20
2021,06,27,02,26,934.20
2021,06,27,02,27,934.20
2021,06,27,02,28,934.20
2021,06,27,02,29,934.20
2021,06,27,02,30,934.20
2021,06,27,02,31,934.20
2021,06,27,02,32,934.20
2021,06,27,02,33,934.20
2021,06,27,02,34,934.20
2021,06,27,02,35,934.20
2021,06,27,02,36,957.20
2021,06,27,02,37,957.20
2021,06,27,02,38,957.20
2021,06,27,02,39,957.20
2021,06,27,02,40,957.20
2021,06,27,02,41,957.20
2021,06,27,02,42,975.14
2021,06,27,02,43,975.14
2021,06,27,02,44,975.14
2021,06,27,02,45,975.14
2021,06,27,02,46,975.14
2021,06,27,02,47,975.14
2021,06,27,02,48,975.14
2021,06,27,02,49,975.14
2021,06,27,02,50,975.14
2021,06,27,02,51,968.27
2021,06,27,02,52,968.27
2021,06,27,02,53,968.27
2021,06,27,02,54,968.27
2021,06,27,02,55,968.27
2021,06,27,02,56,968.27
2021,06,27,02,57,955.06
2021,06,27,02,58,955.06
2021,06,27,02,59,955.06
2021,06,27,03,00,955.06
2021,06,27,03,01,957.30
2021,06,27,03,02,957.30
2021,06,27,03,03,957.30
2021,06,27,03,04,957.30
2021,06,27,03,05,957.26
2021,06,27,03,06,957.26
2021,06,27,03,07,957.26
2021,06,27,03,08,957.26
2021,06,27,03,09,957.26
2021,06,27,03,10,957.26
2021,06,27,03,11,957.26
2021,06,27,03,12,957.26
2021,06,27,03,13,957.12
2021,06,27,03,14,954.39
2021,06,27,03,15,954.39
2021,06,27,03,16,954.39
2021,06,27,03,17,956.18
2021,06,27,03,18,956.18
2021,06,27,03,19,957.94
2021,06,27,03,20,957.94
2021,06,27,03,21,957.94
2021,06,27,03,22,957.94
2021,06,27,03,23,955.77
2021,06,27,03,24,955.77
2021,06,27,03,25,955.77
2021,06,27,03,26,955.77
2021,06,27,03,27,955.77
2021,06,27,03,28,955.77
2021,06,27,03,29,955.77
2021,06,27,03,30,955.77
2021,06,27,03,31,955.77
2021,06,27,03,32,955.77
2021,06,27,03,33,955.77
2021,06,27,03,34,955.77
2021,06,27,03,35,955.77
2021,06,27,03,36,955.30
2021,06,27,03,37,955.30
2021,06,27,03,38,955.30
2021,06,27,03,39,955.30
2021,06,27,03,40,955.30
2021,06,27,03,41,955.30
2021,06,27,03,42,955.30
2021,06,27,03,43,955.30
2021,06,27,03,44,955.30
2021,06,27,03,45,955.30
2021,06,27,03,46,955.30
2021,06,27,03,47,955.30
2021,06,27,03,48,955.30
2021,06,27,03,49,955.30
2021,06,27,03,50,955.30
2021,06,27,03,51,955.30
2021,06,27,03,52,955.30
2021,06,27,03,53,979.72
2021,06,27,03,54,979.72
2021,06,27,03,55,979.72
2021,06,27,03,56,979.72
2021,06,27,03,57,979.72
2021,06,27,03,58,979.72
2021,06,27,03,59,979.72
2021,06,27,04,00,979.72
2021,06,27,04,01,979.72
2021,06,27,04,02,979.72
2021,06,27,04,03,979.72
2021,06,27,04,04,979.72
2021,06,27,04,05,979.72
2021,06,27,04,06,979.72
2021,06,27,04,07,979.72
2021,06,27,04,08,979.72
2021,06,27,04,09,979.72
2021,06,27,04,10,979.72
2021,06,27,04,11,979.72
2021,06,27,04,12,979.72
2021,06,27,04,13,979.72
2021,06,27,04,14,979.72
2021,06,27,04,15,979.72
2021,06,27,04,16,979.72
2021,06,27,04,17,979.72
2021,06,27,04,18,979.72
2021,06,27,04,19,979.72
2021,06,27,04,20,979.72
2021,06,27,04,21,979.72
2021,06,27,04,22,980.43
2021,06,27,04,23,994.62
2021,06,27,04,24,994.62
2021,06,27,04,25,994.62
2021,06,27,04,26,994.62
2021,06,27,04,27,994.62
2021,06,27,04,28,994.62
2021,06,27,04,29,994.62
2021,06,27,04,30,994.62
2021,06,27,04,31,994.62
2021,06,27,04,32,994.62
2021,06,27,04,33,994.62
2021,06,27,04,34,994.62
2021,06,27,04,35,994.62
2021,06,27,04,36,994.62
2021,06,27,04,37,994.62
2021,06,27,04,38,994.62
2021,06,27,04,39,994.62
2021,06,27,04,40,994.62
2021,06,27,04,41,994.62
2021,06,27,04,42,994.62
2021,06,27,04,43,994.62
2021,06,27,04,44,994.62
2021,06,27,04,45,994.62
2021,06,27,04,46,994.62
2021,06,27,04,47,994.62
2021,06,27,04,48,994.62
2021,06,27,04,49,994.62
2021,06,27,04,50,992.85
2021,06,27,04,51,959.30
2021,06,27,04,52,959.30
2021,06,27,04,53,959.30
2021,06,27,04,54,959.30
2021,06,27,04,55,959.30
2021,06,27,04,56,956.55
2021,06,27,04,57,956.68
2021,06,27,04,58,956.69
2021,06,27,04,59,956.69
2021,06,27,05,00,956.69
2021,06,27,05,01,956.69
2021,06,27,05,02,955.61
2021,06,27,05,03,955.61
2021,06,27,05,04,955.61
2021,06,27,05,05,955.61
2021,06,27,05,06,955.61
2021,06,27,05,07,955.61
2021,06,27,05,08,955.61
2021,06,27,05,09,955.61
2021,06,27,05,10,955.61
2021,06,27,05,11,955.61
2021,06,27,05,12,955.61
2021,06,27,05,13,955.61
2021,06,27,05,14,955.61
2021,06,27,05,15,955.61
2021,06,27,05,16,955.61
2021,06,27,05,17,955.61
2021,06,27,05,18,955.61
2021,06,27,05,19,955.61
2021,06,27,05,20,955.61
2021,06,27,05,21,955.61
2021,06,27,05,22,955.61
2021,06,27,05,23,955.61
2021,06,27,05,24,955.61
2021,06,27,05,25,955.61
2021,06,27,05,26,955.61
2021,06,27,05,27,955.61
2021,06,27,05,28,955.61
2021,06,27,05,29,983.20
2021,06,27,05,30,983.20
2021,06,27,05,31,983.20
2021,06,27,05,32,983.20
2021,06,27,05,33,983.20
2021,06,27,05,34,983.20
2021,06,27,05,35,981.55
2021,06,27,05,36,981.55
2021,06,27,05,37,981.55
2021,06,27,05,38,981.55
2021,06,27,05,39,981.55
2021,06,27,05,40,981.55
2021,06,27,05,41,981.55
2021,06,27,05,42,981.55
2021,06,27,05,43,981.55
2021,06,27,05,44,981.55
2021,06,27,05,45,981.55
2021,06,27,05,46,980.02
2021,06,27,05,47,980.02
2021,06,27,05,48,980.02
2021,06,27,05,49,980.02
2021,06,27,05,50,980.02
2021,06,27,05,51,980.02
2021,06,27,05,52,980.02
2021,06,27,05,53,980.02
2021,06,27,05,54,980.02
2021,06,27,05,55,983.14
2021,06,27,05,56,983.14
2021,06,27,05,57,983.14
2021,06,27,05,58,983.14
2021,06,27,05,59,983.14
2021,06,27,06,00,983.14
2021,06,27,06,01,983.14
2021,06,27,06,02,983.14
2021,06,27,06,03,983.14
2021,06,27,06,04,983.14
2021,06,27,06,05,983.14
2021,06,27,06,06,983.14
2021,06,27,06,07,983.14
2021,06,27,06,08,983.14
2021,06,27,06,09,983.14
2021,06,27,06,10,983.14
2021,06,27,06,11,983.14
2021,06,27,06,12,983.14
2021,06,27,06,13,983.14
2021,06,27,06,14,983.14
2021,06,27,06,15,983.14
2021,06,27,06,16,983.14
2021,06,27,06,17,983.14
2021,06,27,06,18,983.14
2021,06,27,06,19,983.14
2021,06,27,06,20,983.14
2021,06,27,06,21,975.62
2021,06,27,06,22,975.62
2021,06,27,06,23,975.62
2021,06,27,06,24,975.62
2021,06,27,06,25,975.62
2021,06,27,06,26,975.62
2021,06,27,06,27,975.62
2021,06,27,06,28,975.62
2021,06,27,06,29,975.62
2021,06,27,06,30,975.62
2021,06,27,06,31,975.62
2021,06,27,06,32,975.62
2021,06,27,06,33,975.62
2021,06,27,06,34,975.62
2021,06,27,06,35,975.62
2021,06,27,06,36,975.62
2021,06,27,06,37,975.62
2021,06,27,06,38,975.62
2021,06,27,06,39,975.62
2021,06,27,06,40,975.62
2021,06,27,06,41,975.62
2021,06,27,06,42,975.62
2021,06,27,06,43,975.62
2021,06,27,06,44,975.62
2021,06,27,06,45,975.62
2021,06,27,06,46,975.62
2021,06,27,06,47,975.62
2021,06,27,06,48,975.62
2021,06,27,06,49,985.64
2021,06,27,06,50,985.61
2021,06,27,06,51,985.61
2021,06,27,06,52,993.26
2021,06,27,06,53,992.72
2021,06,27,06,54,992.72
2021,06,27,06,55,992.72
2021,06,27,06,56,992.72
2021,06,27,06,57,992.72
2021,06,27,06,58,992.72
2021,06,27,06,59,992.72
2021,06,27,07,00,1003.49
2021,06,27,07,01,1003.49
2021,06,27,07,02,1003.49
2021,06,27,07,03,1003.49
2021,06,27,07,04,1001.68
2021,06,27,07,05,1001.59
2021,06,27,07,06,1001.59
2021,06,27,07,07,1005.52
2021,06,27,07,08,1005.05
2021,06,27,07,09,1005.05
2021,06,27,07,10,1008.40
2021,06,27,07,11,1008.40
2021,06,27,07,12,1008.40
2021,06,27,07,13,1008.40
2021,06,27,07,14,1008.40
2021,06,27,07,15,1008.40
2021,06,27,07,16,1008.40
2021,06,27,07,17,1007.89
2021,06,27,07,18,1007.89
2021,06,27,07,19,1007.89
2021,06,27,07,20,1007.89
2021,06,27,07,21,1007.89
2021,06,27,07,22,1007.89
2021,06,27,07,23,1007.89
2021,06,27,07,24,1007.89
2021,06,27,07,25,1007.89
2021,06,27,07,26,1007.89
2021,06,27,07,27,1007.89
2021,06,27,07,28,1007.89
2021,06,27,07,29,1007.89
2021,06,27,07,30,1007.89
2021,06,27,07,31,991.20
2021,06,27,07,32,991.20
2021,06,27,07,33,991.20
2021,06,27,07,34,993.63
2021,06,27,07,35,993.63
2021,06,27,07,36,993.63
2021,06,27,07,37,993.63
2021,06,27,07,38,993.63
2021,06,27,07,39,993.63
2021,06,27,07,40,993.63
2021,06,27,07,41,993.63
2021,06,27,07,42,993.63
2021,06,27,07,43,993.63
2021,06,27,07,44,993.63
2021,06,27,07,45,992.58
2021,06,27,07,46,992.58
2021,06,27,07,47,986.66
2021,06,27,07,48,986.35
2021,06,27,07,49,986.35
2021,06,27,07,50,986.35
2021,06,27,07,51,996.92
2021,06,27,07,52,996.92
2021,06,27,07,53,994.60
2021,06,27,07,54,994.48
2021,06,27,07,55,994.48
2021,06,27,07,56,994.48
2021,06,27,07,57,1006.74
2021,06,27,07,58,1007.35
2021,06,27,07,59,1007.35
2021,06,27,08,00,1007.35
2021,06,27,08,01,1007.35
2021,06,27,08,02,1007.35
2021,06,27,08,03,1007.35
2021,06,27,08,04,1007.35
2021,06,27,08,05,1007.35
2021,06,27,08,06,1007.35
2021,06,27,08,07,1007.35
2021,06,27,08,08,1007.35
2021,06,27,08,09,1007.35
2021,06,27,08,10,1007.35
2021,06,27,08,11,1007.35
2021,06,27,08,12,1007.35
2021,06,27,08,13,1007.35
2021,06,27,08,14,1007.35
2021,06,27,08,15,1007.35
2021,06,27,08,16,1007.35
2021,06,27,08,17,1007.35
2021,06,27,08,18,1007.35
2021,06,27,08,19,1001.08
2021,06,27,08,20,1001.08
2021,06,27,08,21,1001.08
2021,06,27,08,22,1001.08
2021,06,27,08,23,1001.08
2021,06,27,08,24,1001.08
2021,06,27,08,25,1001.08
2021,06,27,08,26,1000.07
2021,06,27,08,27,1000.07
2021,06,27,08,28,1000.07
2021,06,27,08,29,1000.07
2021,06,27,08,30,1000.07
2021,06,27,08,31,1000.07
2021,06,27,08,32,1000.07
2021,06,27,08,33,1000.07
2021,06,27,08,34,1000.07
2021,06,27,08,35,1000.07
2021,06,27,08,36,1000.07
2021,06,27,08,37,1000.07
2021,06,27,08,38,1000.07
2021,06,27,08,39,1000.07
2021,06,27,08,40,1000.07
2021,06,27,08,41,1000.07
2021,06,27,08,42,1000.07
2021,06,27,08,43,1000.07
2021,06,27,08,44,1000.07
2021,06,27,08,45,1000.07
2021,06,27,08,46,1000.07
2021,06,27,08,47,1000.07
2021,06,27,08,48,1000.07
2021,06,27,08,49,1000.07
2021,06,27,08,50,1000.07
2021,06,27,08,51,1000.07
2021,06,27,08,52,1000.07
2021,06,27,08,53,1000.07
2021,06,27,08,54,1000.07
2021,06,27,08,55,1000.07
2021,06,27,08,56,1000.07
2021,06,27,08,57,1000.07
2021,06,27,08,58,1000.07
2021,06,27,08,59,1000.07
2021,06,27,09,00,983.78
2021,06,27,09,01,983.17
2021,06,27,09,02,983.17
2021,06,27,09,03,990.99
2021,06,27,09,04,991.43
2021,06,27,09,05,991.43
2021,06,27,09,06,991.43
2021,06,27,09,07,991.43
2021,06,27,09,08,988.49
2021,06,27,09,09,988.49
2021,06,27,09,10,988.49
2021,06,27,09,11,988.49
2021,06,27,09,12,988.49
2021,06,27,09,13,988.49
2021,06,27,09,14,988.49
2021,06,27,09,15,988.49
2021,06,27,09,16,988.49
2021,06,27,09,17,988.49
2021,06,27,09,18,988.49
2021,06,27,09,19,990.45
2021,06,27,09,20,990.45
2021,06,27,09,21,990.45
2021,06,27,09,22,990.45
2021,06,27,09,23,990.45
2021,06,27,09,24,990.45
2021,06,27,09,25,990.45
2021,06,27,09,26,990.45
2021,06,27,09,27,990.45
2021,06,27,09,28,990.45
2021,06,27,09,29,990.45
2021,06,27,09,30,990.45
2021,06,27,09,31,990.45
2021,06,27,09,32,990.45
2021,06,27,09,33,990.45
2021,06,27,09,34,990.45
2021,06,27,09,35,990.45
2021,06,27,09,36,990.45
2021,06,27,09,37,990.45
2021,06,27,09,38,990.45
2021,06,27,09,39,990.45
2021,06,27,09,40,990.45
2021,06,27,09,41,990.45
2021,06,27,09,42,990.45
2021,06,27,09,43,990.45
2021,06,27,09,44,1007.11
2021,06,27,09,45,1007.11
2021,06,27,09,46,1007.11
2021,06,27,09,47,1007.11
2021,06,27,09,48,1007.99
2021,06,27,09,49,1007.99
2021,06,27,09,50,1007.99
2021,06,27,09,51,1007.99
2021,06,27,09,52,1007.99
2021,06,27,09,53,1007.99
2021,06,27,09,54,1007.99
2021,06,27,09,55,1007.99
2021,06,27,09,56,1007.99
2021,06,27,09,57,1007.99
2021,06,27,09,58,1007.99
2021,06,27,09,59,1007.99
2021,06,27,10,00,1007.99
2021,06,27,10,01,1007.99
2021,06,27,10,02,1007.99
2021,06,27,10,03,1007.99
2021,06,27,10,04,1007.99
2021,06,27,10,05,1007.99
2021,06,27,10,06,1007.99
2021,06,27,10,07,1007.99
2021,06,27,10,08,1007.99
2021,06,27,10,09,1007.99
2021,06,27,10,10,1007.99
2021,06,27,10,11,1007.99
2021,06,27,10,12,1007.99
2021,06,27,10,13,1007.99
2021,06,27,10,14,1007.99
2021,06,27,10,15,1007.99
2021,06,27,10,16,1007.99
2021,06,27,10,17,1007.99
2021,06,27,10,18,1007.99
2021,06,27,10,19,1007.99
2021,06,27,10,20,1007.99
2021,06,27,10,21,999.26
2021,06,27,10,22,998.82
2021,06,27,10,23,998.82
2021,06,27,10,24,998.82
2021,06,27,10,25,998.82
2021,06,27,10,26,998.82
2021,06,27,10,27,1002.10
2021,06,27,10,28,1002.10
2021,06,27,10,29,1002.10
2021,06,27,10,30,1002.10
2021,06,27,10,31,1002.10
2021,06,27,10,32,1002.10
2021,06,27,10,33,1002.10
2021,06,27,10,34,1001.15
2021,06,27,10,35,1001.15
2021,06,27,10,36,1001.15
2021,06,27,10,37,1001.15
2021,06,27,10,38,1001.15
2021,06,27,10,39,1001.15
2021,06,27,10,40,1001.15
2021,06,27,10,41,1001.15
2021,06,27,10,42,1001.15
2021,06,27,10,43,1001.15
2021,06,27,10,44,1008.30
2021,06,27,10,45,1008.30
2021,06,27,10,46,1008.30
2021,06,27,10,47,1008.30
2021,06,27,10,48,1007.82
2021,06,27,10,49,1007.82
2021,06,27,10,50,1007.82
2021,06,27,10,51,1010.74
2021,06,27,10,52,1010.74
2021,06,27,10,53,1010.74
2021,06,27,10,54,1010.74
2021,06,27,10,55,1010.74
2021,06,27,10,56,1010.26
2021,06,27,10,57,1010.26
2021,06,27,10,58,1006.17
2021,06,27,10,59,1006.40
2021,06,27,11,00,1006.37
2021,06,27,11,01,1006.37
2021,06,27,11,02,1000.17
2021,06,27,11,03,1000.17
2021,06,27,11,04,1000.17
2021,06,27,11,05,1002.57
2021,06,27,11,06,1002.57
2021,06,27,11,07,988.05
2021,06,27,11,08,988.05
2021,06,27,11,09,988.05
2021,06,27,11,10,988.05
2021,06,27,11,11,988.05
2021,06,27,11,12,988.05
2021,06,27,11,13,988.05
2021,06,27,11,14,988.05
2021,06,27,11,15,991.62
2021,06,27,11,16,991.81
2021,06,27,11,17,991.81
2021,06,27,11,18,991.81
2021,06,27,11,19,991.81
2021,06,27,11,20,991.81
2021,06,27,11,21,991.81
2021,06,27,11,22,991.81
2021,06,27,11,23,991.81
2021,06,27,11,24,991.74
2021,06,27,11,25,991.74
2021,06,27,11,26,991.74
2021,06,27,11,27,995.97
2021,06,27,11,28,995.97
2021,06,27,11,29,995.97
2021,06,27,11,30,995.97
2021,06,27,11,31,995.97
2021,06,27,11,32,995.97
2021,06,27,11,33,995.97
2021,06,27,11,34,995.97
2021,06,27,11,35,995.97
2021,06,27,11,36,995.97
2021,06,27,11,37,995.97
2021,06,27,11,38,995.97
2021,06,27,11,39,993.91
2021,06,27,11,40,993.91
2021,06,27,11,41,993.91
2021,06,27,11,42,993.91
2021,06,27,11,43,993.91
2021,06,27,11,44,993.91
2021,06,27,11,45,993.91
2021,06,27,11,46,1007.45
2021,06,27,11,47,1007.48
2021,06,27,11,48,1007.93
2021,06,27,11,49,1007.45
2021,06,27,11,50,1007.45
2021,06,27,11,51,1007.45
2021,06,27,11,52,1007.45
2021,06,27,11,53,1007.42
2021,06,27,11,54,1007.42
2021,06,27,11,55,1007.42
2021,06,27,11,56,1007.42
2021,06,27,11,57,1007.42
2021,06,27,11,58,1007.42
2021,06,27,11,59,987.23
2021,06,27,12,00,987.23
2021,06,27,12,01,987.23
2021,06,27,12,02,987.23
2021,06,27,12,03,987.23
2021,06,27,12,04,987.23
2021,06,27,12,05,987.23
2021,06,27,12,06,987.23
2021,06,27,12,07,987.23
2021,06,27,12,08,987.23
2021,06,27,12,09,987.23
2021,06,27,12,10,987.23
2021,06,27,12,11,992.72
2021,06,27,12,12,992.72
2021,06,27,12,13,992.72
2021,06,27,12,14,992.72
2021,06,27,12,15,1004.04
2021,06,27,12,16,1004.61
2021,06,27,12,17,1004.61
2021,06,27,12,18,1004.61
2021,06,27,12,19,1004.61
2021,06,27,12,20,1006.03
2021,06,27,12,21,1006.03
2021,06,27,12,22,1006.03
2021,06,27,12,23,1006.03
2021,06,27,12,24,1006.03
2021,06,27,12,25,1006.03
2021,06,27,12,26,1006.03
2021,06,27,12,27,1006.03
2021,06,27,12,28,1006.03
2021,06,27,12,29,1006.03
2021,06,27,12,30,1006.03
2021,06,27,12,31,1006.03
2021,06,27,12,32,980.94
2021,06,27,12,33,980.94
2021,06,27,12,34,980.94
2021,06,27,12,35,987.17
2021,06,27,12,36,987.17
2021,06,27,12,37,987.17
2021,06,27,12,38,987.17
2021,06,27,12,39,987.17
2021,06,27,12,40,987.17
2021,06,27,12,41,987.17
2021,06,27,12,42,987.17
2021,06,27,12,43,1009.92
2021,06,27,12,44,1009.92
2021,06,27,12,45,1009.92
2021,06,27,12,46,1009.92
2021,06,27,12,47,1009.92
2021,06,27,12,48,1009.92
2021,06,27,12,49,1009.92
2021,06,27,12,50,1009.92
2021,06,27,12,51,1009.92
2021,06,27,12,52,1009.92
2021,06,27,12,53,1009.92
2021,06,27,12,54,1009.92
2021,06,27,12,55,1009.92
2021,06,27,12,56,1009.92
2021,06,27,12,57,1009.92
2021,06,27,12,58,1009.92
2021,06,27,12,59,1009.92
2021,06,27,13,00,1009.92
2021,06,27,13,01,1009.92
2021,06,27,13,02,1009.92
2021,06,27,13,03,1009.92
2021,06,27,13,04,1009.92
2021,06,27,13,05,995.51
2021,06,27,13,06,994.75
2021,06,27,13,07,994.75
2021,06,27,13,08,996.65
2021,06,27,13,09,996.65
2021,06,27,13,10,996.65
2021,06,27,13,11,996.65
2021,06,27,13,12,996.65
2021,06,27,13,13,996.65
2021,06,27,13,14,996.65
2021,06,27,13,15,996.65
2021,06,27,13,16,996.65
2021,06,27,13,17,996.61
2021,06,27,13,18,996.61
2021,06,27,13,19,996.61
2021,06,27,13,20,996.61
2021,06,27,13,21,996.61
2021,06,27,13,22,996.61
2021,06,27,13,23,996.61
2021,06,27,13,24,996.61
2021,06,27,13,25,996.61
2021,06,27,13,26,996.61
2021,06,27,13,27,996.61
2021,06,27,13,28,996.61
2021,06,27,13,29,996.61
2021,06,27,13,30,996.61
2021,06,27,13,31,996.61
2021,06,27,13,32,996.61
2021,06,27,13,33,996.61
2021,06,27,13,34,996.61
2021,06,27,13,35,996.61
2021,06,27,13,36,996.61
2021,06,27,13,37,996.61
2021,06,27,13,38,996.61
2021,06,27,13,39,996.61
2021,06,27,13,40,996.61
2021,06,27,13,41,996.61
2021,06,27,13,42,973.76
2021,06,27,13,43,973.76
2021,06,27,13,44,973.76
2021,06,27,13,45,973.76
2021,06,27,13,46,973.76
2021,06,27,13,47,973.76
2021,06,27,13,48,973.76
2021,06,27,13,49,973.76
2021,06,27,13,50,973.76
2021,06,27,13,51,973.76
2021,06,27,13,52,973.76
2021,06,27,13,53,973.76
2021,06,27,13,54,973.76
2021,06,27,13,55,973.76
2021,06,27,13,56,973.76
2021,06,27,13,57,980.38
2021,06,27,13,58,980.73
2021,06,27,13,59,980.73
2021,06,27,14,00,980.73
2021,06,27,14,01,980.73
2021,06,27,14,02,980.73
2021,06,27,14,03,980.73
2021,06,27,14,04,980.73
2021,06,27,14,05,980.73
2021,06,27,14,06,980.73
2021,06,27,14,07,982.46
2021,06,27,14,08,982.59
2021,06,27,14,09,982.59
2021,06,27,14,10,982.59
2021,06,27,14,11,982.59
2021,06,27,14,12,982.59
2021,06,27,14,13,982.59
2021,06,27,14,14,978.80
2021,06,27,14,15,978.80
2021,06,27,14,16,978.80
2021,06,27,14,17,978.80
2021,06,27,14,18,978.80
2021,06,27,14,19,978.80
2021,06,27,14,20,987.57
2021,06,27,14,21,987.57
2021,06,27,14,22,988.62
2021,06,27,14,23,988.62
2021,06,27,14,24,988.62
2021,06,27,14,25,988.62
2021,06,27,14,26,988.62
2021,06,27,14,27,988.62
2021,06,27,14,28,988.62
2021,06,27,14,29,988.62
2021,06,27,14,30,988.62
2021,06,27,14,31,988.62
2021,06,27,14,32,988.62
2021,06,27,14,33,988.62
2021,06,27,14,34,988.62
2021,06,27,14,35,988.62
2021,06,27,14,36,988.62
2021,06,27,14,37,988.62
2021,06,27,14,38,988.62
2021,06,27,14,39,988.62
2021,06,27,14,40,988.62
2021,06,27,14,41,988.62
2021,06,27,14,42,988.62
2021,06,27,14,43,988.62
2021,06,27,14,44,988.62
2021,06,27,14,45,988.62
2021,06,27,14,46,977.85
2021,06,27,14,47,977.28
2021,06,27,14,48,977.28
2021,06,27,14,49,977.28
2021,06,27,14,50,977.28
2021,06,27,14,51,977.28
2021,06,27,14,52,977.28
2021,06,27,14,53,977.28
2021,06,27,14,54,977.28
2021,06,27,14,55,977.28
2021,06,27,14,56,977.28
2021,06,27,14,57,977.28
2021,06,27,14,58,977.28
2021,06,27,14,59,977.28
2021,06,27,15,00,977.28
2021,06,27,15,01,977.28
2021,06,27,15,02,977.28
2021,06,27,15,03,967.30
2021,06,27,15,04,966.78
2021,06,27,15,05,966.78
2021,06,27,15,06,966.78
2021,06,27,15,07,966.78
2021,06,27,15,08,966.78
2021,06,27,15,09,966.78
2021,06,27,15,10,966.78
2021,06,27,15,11,976.43
2021,06,27,15,12,976.43
2021,06,27,15,13,976.43
2021,06,27,15,14,976.43
2021,06,27,15,15,976.43
2021,06,27,15,16,976.43
2021,06,27,15,17,976.43
2021,06,27,15,18,976.43
2021,06,27,15,19,976.43
2021,06,27,15,20,974.43
2021,06,27,15,21,974.43
2021,06,27,15,22,974.43
2021,06,27,15,23,974.43
2021,06,27,15,24,978.23
2021,06,27,15,25,978.23
2021,06,27,15,26,978.23
2021,06,27,15,27,978.23
2021,06,27,15,28,978.23
2021,06,27,15,29,978.23
2021,06,27,15,30,992.62
2021,06,27,15,31,992.62
2021,06,27,15,32,977.96
2021,06,27,15,33,977.96
2021,06,27,15,34,977.96
2021,06,27,15,35,977.96
2021,06,27,15,36,977.96
2021,06,27,15,37,977.96
2021,06,27,15,38,977.96
2021,06,27,15,39,977.96
2021,06,27,15,40,977.96
2021,06,27,15,41,977.96
2021,06,27,15,42,977.96
2021,06,27,15,43,977.96
2021,06,27,15,44,977.96
2021,06,27,15,45,951.30
2021,06,27,15,46,951.30
2021,06,27,15,47,951.30
2021,06,27,15,48,951.30
2021,06,27,15,49,951.30
2021,06,27,15,50,951.30
2021,06,27,15,51,951.30
2021,06,27,15,52,951.30
2021,06,27,15,53,951.30
2021,06,27,15,54,957.26
2021,06,27,15,55,957.57
2021,06,27,15,56,957.57
2021,06,27,15,57,957.57
2021,06,27,15,58,957.57
2021,06,27,15,59,957.57
2021,06,27,16,00,957.57
2021,06,27,16,01,957.57
2021,06,27,16,02,957.57
2021,06,27,16,03,957.57
2021,06,27,16,04,957.57
2021,06,27,16,05,957.57
2021,06,27,16,06,957.57
2021,06,27,16,07,957.57
2021,06,27,16,08,957.57
2021,06,27,16,09,957.57
2021,06,27,16,10,957.57
2021,06,27,16,11,957.57
2021,06,27,16,12,957.57
2021,06,27,16,13,965.64
2021,06,27,16,14,966.04
2021,06,27,16,15,966.04
2021,06,27,16,16,966.04
2021,06,27,16,17,966.04
2021,06,27,16,18,966.04
2021,06,27,16,19,966.04
2021,06,27,16,20,966.04
2021,06,27,16,21,966.04
2021,06,27,16,22,959.13
2021,06,27,16,23,959.13
2021,06,27,16,24,959.13
2021,06,27,16,25,959.13
2021,06,27,16,26,959.13